Weather History for KPLU - May, 2013

Change the Weather History Date:

Wednesday, May 15, 2013

  Actual Average (WUND) Record (WUND)
Temperature  
Mean Temperature 52 °F -  
Max Temperature 64 °F - - (-1)
Min Temperature 39 °F - - (-1)
Degree Days  
Heating Degree Days 14    
Growing Degree Days 2 (Base 50)    
Moisture  
Dew Point 46 °F    
Average Humidity 84    
Maximum Humidity 100    
Minimum Humidity 49    
Precipitation  
Precipitation 0.04 in - - ()
Sea Level Pressure  
Sea Level Pressure 30.08 in    
Wind  
Wind Speed 0 mph (West)    
Max Wind Speed 10 mph    
Max Gust Speed -    
Visibility 10 miles    
Events Rain    
Averages and records for this station are not official NWS values.
T = Trace of Precipitation, MM = Missing Value Source: NWS Daily Summary

Daily Weather History Graph

Daily Weather History Graph

Search for Another Location

Airport or City:

Trip Planner

Search our weather history database for the weather conditions in past years. The results will help you decide how hot, cold, wet, or windy it might be!

Date:

Astronomy

May. 15, 2013 Rise Set
Actual Time 5:33 AM PDT 8:38 PM PDT
Civil Twilight 4:56 AM PDT 9:15 PM PDT
Nautical Twilight 4:10 AM PDT 10:02 PM PDT
Astronomical Twilight 3:12 AM PDT 11:00 PM PDT
Moon 10:17 AM PDT (5/15) 12:25 AM PDT (5/15)
Length of Visible Light 16h 18m
Length of Day
15h 05m
Waxing Crescent, 28% of the Moon is Illuminated
May 15
Waxing Crescent
May 17
First Quarter
May 24
Full
May 31
Last Quarter
Jun 8
New

Hourly Weather History & Observations

Time (PDT) Temp. Dew Point Humidity Pressure Visibility Wind Dir Wind Speed Gust Speed Precip Events Conditions
12:15 AM 48.2 °F 44.6 °F 87% 30.14 in 10.0 mi Calm Calm - N/A   Unknown
12:35 AM 48.2 °F 44.6 °F 87% 30.14 in 10.0 mi Calm Calm - N/A   Unknown
12:55 AM 46.4 °F 42.8 °F 87% 30.14 in 10.0 mi Calm Calm - N/A   Unknown
1:15 AM 44.6 °F 42.8 °F 93% 30.13 in 10.0 mi Calm Calm - N/A   Unknown
1:35 AM 44.6 °F 42.8 °F 93% 30.13 in 10.0 mi Calm Calm - N/A   Unknown
1:55 AM 46.4 °F 42.8 °F 87% 30.13 in 10.0 mi Calm Calm - N/A   Unknown
2:15 AM 44.6 °F 42.8 °F 93% 30.12 in 10.0 mi Calm Calm - N/A   Unknown
2:35 AM 44.6 °F 42.8 °F 93% 30.12 in 10.0 mi Calm Calm - N/A   Unknown
2:55 AM 44.6 °F 41.0 °F 87% 30.11 in 10.0 mi Calm Calm - N/A   Unknown
3:15 AM 42.8 °F 41.0 °F 93% 30.11 in 10.0 mi Calm Calm - N/A   Unknown
3:35 AM 41.0 °F 41.0 °F 100% 30.12 in 10.0 mi Calm Calm - N/A   Unknown
3:55 AM 42.8 °F 42.8 °F 100% 30.11 in 10.0 mi Calm Calm - N/A   Unknown
4:15 AM 42.8 °F 41.0 °F 93% 30.11 in 10.0 mi Calm Calm - N/A   Unknown
4:35 AM 41.0 °F 41.0 °F 100% 30.11 in 10.0 mi Calm Calm - N/A   Unknown
4:55 AM 41.0 °F 41.0 °F 100% 30.10 in 10.0 mi Calm Calm - N/A   Unknown
5:15 AM 41.0 °F 41.0 °F 100% 30.10 in 10.0 mi Calm Calm - N/A   Unknown
5:35 AM 39.2 °F 39.2 °F 100% 30.10 in 10.0 mi Calm Calm - N/A   Unknown
5:55 AM 39.2 °F 39.2 °F 100% 30.10 in 10.0 mi Calm Calm - N/A   Unknown
6:15 AM 39.2 °F 39.2 °F 100% 30.10 in 10.0 mi Calm Calm - N/A   Unknown
6:35 AM 41.0 °F 41.0 °F 100% 30.10 in 10.0 mi Calm Calm - N/A   Unknown
6:55 AM 42.8 °F 42.8 °F 100% 30.10 in 10.0 mi Calm Calm - N/A   Unknown
7:15 AM 46.4 °F 44.6 °F 93% 30.10 in 10.0 mi Calm Calm - N/A   Unknown
7:35 AM 48.2 °F 44.6 °F 87% 30.10 in 10.0 mi Calm Calm - N/A   Unknown
7:55 AM 48.2 °F 44.6 °F 87% 30.10 in 10.0 mi Calm Calm - N/A   Unknown
8:15 AM 50.0 °F 44.6 °F 82% 30.10 in 10.0 mi Calm Calm - N/A   Unknown
8:35 AM 53.6 °F 44.6 °F 72% 30.09 in 10.0 mi Calm Calm - N/A   Unknown
8:55 AM 53.6 °F 42.8 °F 67% 30.09 in 10.0 mi Calm Calm - N/A   Unknown
9:15 AM 55.4 °F 42.8 °F 63% 30.09 in 10.0 mi Calm Calm - N/A   Unknown
9:35 AM 55.4 °F 42.8 °F 63% 30.09 in 10.0 mi Calm Calm - N/A   Unknown
9:55 AM 57.2 °F 42.8 °F 59% 30.08 in 10.0 mi Calm Calm - N/A   Unknown
10:15 AM 57.2 °F 42.8 °F 59% 30.08 in 10.0 mi Calm Calm - N/A   Unknown
10:35 AM 57.2 °F 42.8 °F 59% 30.08 in 10.0 mi Calm Calm - N/A   Unknown
10:55 AM 59.0 °F 42.8 °F 55% 30.08 in 10.0 mi Calm Calm - N/A   Unknown
11:15 AM 59.0 °F 42.8 °F 55% 30.08 in 10.0 mi Calm Calm - N/A   Unknown
11:35 AM 59.0 °F 44.6 °F 59% 30.08 in 10.0 mi Calm Calm - N/A   Unknown
11:55 AM 59.0 °F 42.8 °F 55% 30.07 in 10.0 mi Calm Calm - N/A   Unknown
12:15 PM 62.6 °F 44.6 °F 52% 30.07 in 10.0 mi Calm Calm - N/A   Unknown
12:35 PM 62.6 °F 44.6 °F 52% 30.06 in 10.0 mi Calm Calm - N/A   Unknown
12:55 PM 64.4 °F 44.6 °F 49% 30.06 in 10.0 mi WSW 9.2 mph - N/A   Unknown
1:15 PM 62.6 °F 44.6 °F 52% 30.05 in 10.0 mi West 3.5 mph - N/A   Unknown
1:35 PM 62.6 °F 44.6 °F 52% 30.05 in 10.0 mi NW 4.6 mph - N/A   Unknown
1:55 PM 62.6 °F 46.4 °F 55% 30.06 in 10.0 mi Calm Calm - N/A   Unknown
2:15 PM 60.8 °F 46.4 °F 59% 30.06 in 10.0 mi West 10.4 mph - N/A   Unknown
2:35 PM 57.2 °F 46.4 °F 67% 30.07 in 10.0 mi West 4.6 mph - N/A   Unknown
2:55 PM 55.4 °F 46.4 °F 72% 30.07 in 10.0 mi West 8.1 mph - N/A   Unknown
3:15 PM 55.4 °F 48.2 °F 77% 30.07 in 10.0 mi Calm Calm - N/A   Unknown
3:35 PM 53.6 °F 50.0 °F 88% 30.07 in 6.0 mi Calm Calm - N/A Rain Light Rain
3:55 PM 53.6 °F 51.8 °F 94% 30.07 in 7.0 mi Calm Calm - 0.01 in Rain Light Rain
4:15 PM 55.4 °F 50.0 °F 82% 30.07 in 10.0 mi Calm Calm - N/A   Unknown
4:35 PM 55.4 °F 51.8 °F 88% 30.06 in 10.0 mi Calm Calm - N/A   Unknown
4:55 PM 55.4 °F 50.0 °F 82% 30.06 in 7.0 mi Calm Calm - N/A Rain Light Rain
5:15 PM 55.4 °F 51.8 °F 88% 30.06 in 10.0 mi Calm Calm - N/A   Unknown
5:35 PM 55.4 °F 51.8 °F 88% 30.06 in 7.0 mi Calm Calm - N/A Rain Light Rain
5:55 PM 55.4 °F 51.8 °F 88% 30.05 in 9.0 mi Calm Calm - 0.01 in Rain Light Rain
6:15 PM 55.4 °F 53.6 °F 94% 30.05 in 9.0 mi Calm Calm - N/A Rain Light Rain
6:35 PM 55.4 °F 53.6 °F 94% 30.05 in 10.0 mi Calm Calm - 0.01 in Rain Light Rain
6:55 PM 53.6 °F 53.6 °F 100% 30.04 in 8.0 mi Calm Calm - 0.01 in Rain Light Rain
7:15 PM 53.6 °F 53.6 °F 100% 30.04 in 8.0 mi Calm Calm - N/A Rain Light Rain
7:35 PM 53.6 °F 53.6 °F 100% 30.04 in 10.0 mi Calm Calm - N/A   Unknown
7:55 PM 53.6 °F 53.6 °F 100% 30.04 in 8.0 mi Calm Calm - 0.01 in Rain Light Rain
8:15 PM 53.6 °F 53.6 °F 100% 30.04 in 10.0 mi Calm Calm - N/A Rain Light Rain
8:35 PM 53.6 °F 53.6 °F 100% 30.04 in 10.0 mi Calm Calm - N/A   Unknown
8:55 PM 53.6 °F 53.6 °F 100% 30.04 in 10.0 mi Calm Calm - N/A   Unknown
9:15 PM 53.6 °F 53.6 °F 100% 30.04 in 5.0 mi Calm Calm - N/A   Mist
9:35 PM 51.8 °F 51.8 °F 100% 30.04 in 3.0 mi Calm Calm - N/A   Mist
9:55 PM 51.8 °F 51.8 °F 100% 30.05 in 9.0 mi Calm Calm - N/A   Unknown
10:15 PM 51.8 °F 51.8 °F 100% 30.04 in 8.0 mi Calm Calm - N/A   Unknown
10:35 PM 51.8 °F 51.8 °F 100% 30.04 in 10.0 mi Calm Calm - N/A   Unknown
10:55 PM 51.8 °F 51.8 °F 100% 30.04 in 10.0 mi Calm Calm - N/A   Unknown
11:15 PM 51.8 °F 51.8 °F 100% 30.04 in 9.0 mi Calm Calm - N/A   Unknown
11:55 PM 50.0 °F 50.0 °F 100% 30.03 in 8.0 mi Calm Calm - N/A   Unknown